Avalon, CA

8:19 AM PDT on April 23, 2017 (GMT -0700)
Catalina

Weather History for KAVX - January, 2013

Change the Weather History Date:

Friday, January 4, 2013

  Actual Average Record
Temperature  
Mean Temperature 54 °F -  
Max Temperature 57 °F 58 °F 81 °F (2012)
Min Temperature 51 °F 49 °F 41 °F (2005)
Degree Days  
Heating Degree Days 11    
Growing Degree Days 4 (Base 50)    
Moisture  
Dew Point 22 °F    
Average Humidity 30    
Maximum Humidity 51    
Minimum Humidity 17    
Precipitation  
Precipitation 0.00 in - - ()
Sea Level Pressure  
Sea Level Pressure 30.20 in    
Wind  
Wind Speed 4 mph (SE)    
Max Wind Speed 10 mph    
Max Gust Speed -    
Visibility 10 miles    
Events      
Averages and records for this station are not official NWS values.
T = Trace of Precipitation, MM = Missing Value Source: NWS Daily Summary

Daily Weather History Graph

Daily Weather History Graph

Search for Another Location

Airport or City:

Trip Planner

Search our weather history database for the weather conditions in past years. The results will help you decide how hot, cold, wet, or windy it might be!

Date:

Astronomy

Jan. 04, 2013 Rise Set
Actual Time 6:58 AM PST 4:59 PM PST
Civil Twilight 6:30 AM PST 5:27 PM PST
Nautical Twilight 6:00 AM PST 5:57 PM PST
Astronomical Twilight 5:29 AM PST 6:28 PM PST
Moon No Moon Rise 11:06 AM PST (1/4)
Length of Visible Light 10h 56m
Length of Day
10h 01m
Waning Gibbous, 54% of the Moon is Illuminated
Jan 4
Waning Gibbous
Jan 4
Last Quarter
Jan 11
New
Jan 18
First Quarter
Jan 26
Full

Hourly Weather History & Observations

Time (PST) Temp. Dew Point Humidity Pressure Visibility Wind Dir Wind Speed Gust Speed Precip Events Conditions
12:51 AM 57.0 °F 12.9 °F 18% 30.15 in 10.0 mi SE 3.5 mph - N/A   Clear
1:51 AM 52.0 °F 30.9 °F 45% 30.16 in 10.0 mi ESE 4.6 mph - N/A   Clear
2:51 AM 51.1 °F 25.0 °F 36% 30.16 in 10.0 mi SE 6.9 mph - N/A   Clear
3:51 AM 51.1 °F 19.9 °F 29% 30.16 in 10.0 mi SSE 5.8 mph - N/A   Clear
4:51 AM 52.0 °F 14.0 °F 22% 30.16 in 10.0 mi SE 10.4 mph - N/A   Clear
5:51 AM 53.1 °F 12.0 °F 20% 30.18 in 10.0 mi South 6.9 mph - N/A   Clear
6:51 AM 53.1 °F 12.0 °F 20% 30.19 in 10.0 mi SSE 5.8 mph - N/A   Clear
7:51 AM 54.0 °F 15.1 °F 22% 30.22 in 10.0 mi Calm Calm - N/A   Clear
8:51 AM 57.0 °F 16.0 °F 20% 30.24 in 10.0 mi SSE 3.5 mph - N/A   Clear
9:51 AM 57.9 °F 34.0 °F 41% 30.25 in 10.0 mi Calm Calm - N/A   Clear
10:51 AM 57.9 °F 36.0 °F 44% 30.24 in 10.0 mi Variable 3.5 mph - N/A   Clear
11:51 AM 57.9 °F 34.0 °F 41% 30.21 in 10.0 mi West 6.9 mph - N/A   Clear
12:51 PM 57.0 °F 39.0 °F 51% 30.19 in 10.0 mi Calm Calm - N/A   Clear
2:51 PM 57.0 °F 35.1 °F 44% 30.19 in 10.0 mi NNE 3.5 mph - N/A   Clear
3:51 PM 57.0 °F 30.9 °F 37% 30.19 in 10.0 mi Calm Calm - N/A   Clear
4:51 PM 54.0 °F 27.0 °F 35% 30.19 in 10.0 mi Calm Calm - N/A   Clear
5:51 PM 54.0 °F 21.0 °F 28% 30.19 in 10.0 mi Calm Calm - N/A   Clear
7:51 PM 55.0 °F 10.9 °F 17% 30.22 in 10.0 mi Calm Calm - N/A   Clear
8:51 PM 54.0 °F 10.9 °F 18% 30.22 in 10.0 mi Calm Calm - N/A   Clear
9:51 PM 53.1 °F 27.0 °F 37% 30.23 in 10.0 mi Calm Calm - N/A   Clear
10:51 PM 53.1 °F 14.0 °F 21% 30.24 in 10.0 mi Calm Calm - N/A   Clear
11:51 PM 53.1 °F 10.0 °F 18% 30.23 in 10.0 mi North 3.5 mph - N/A   Clear